Rotterdam, Netherlands

7:58 AM CET on February 23, 2018 (GMT +0100)
Rotterdam

Weather History for EHRD - November, 2013

Change the Weather History Date:

Saturday, November 16, 2013

  Actual Average Record
Temperature  
Mean Temperature 38 °F -  
Max Temperature 44 °F 45 °F 60 °F (2006)
Min Temperature 32 °F 36 °F 26 °F (1996)
Degree Days  
Heating Degree Days 27    
Moisture  
Dew Point 41 °F    
Average Humidity 100    
Maximum Humidity 100    
Minimum Humidity 93    
Precipitation  
Precipitation 0.00 in - - ()
Sea Level Pressure  
Sea Level Pressure 30.44 in    
Wind  
Wind Speed 4 mph ()    
Max Wind Speed 9 mph    
Max Gust Speed -    
Visibility 0.8 miles    
Events Fog    
Averages and records for this station are not official NWS values.
T = Trace of Precipitation, MM = Missing Value Source: Averaged Metar Reports

Daily Weather History Graph

Daily Weather History Graph

Search for Another Location

Airport or City:

Trip Planner

Search our weather history database for the weather conditions in past years. The results will help you decide how hot, cold, wet, or windy it might be!

Date:

Astronomy

Nov. 16, 2013 Rise Set
Actual Time 8:03 AM CET 4:49 PM CET
Civil Twilight 7:26 AM CET 5:27 PM CET
Nautical Twilight 6:44 AM CET 6:08 PM CET
Astronomical Twilight 6:05 AM CET 6:48 PM CET
Moon 4:20 PM CET (11/16) 6:36 AM CET (11/16)
Length of Visible Light 10h 01m
Length of Day
8h 45m
Waxing Gibbous, 99% of the Moon is Illuminated
Nov 16
Waxing Gibbous
Nov 17
Full
Nov 25
Last Quarter
Dec 3
New
Dec 9
First Quarter

Hourly Weather History & Observations

Time (CET) Temp. Windchill Dew Point Humidity Pressure Visibility Wind Dir Wind Speed Gust Speed Precip Events Conditions
12:25 AM 37.4 °F - 37.4 °F 100% 30.48 in 0.6 mi Variable 2.3 mph - N/A Fog Fog
12:55 AM 35.6 °F - 35.6 °F 100% 30.48 in - Variable 1.2 mph - N/A   Mostly Cloudy
1:00 AM 36 °F - 36 °F 98% 30.49 in 1 mi Calm Calm - - Fog Fog
1:25 AM 35.6 °F - 35.6 °F 100% 30.48 in 0.3 mi Variable 1.2 mph - N/A Fog Fog
1:55 AM 33.8 °F - 33.8 °F 100% 30.48 in 0.3 mi Calm Calm - N/A Fog Fog
2:25 AM 33.8 °F - 33.8 °F 100% 30.48 in - South 2.3 mph - N/A Fog Fog
2:55 AM 35.6 °F - 35.6 °F 100% 30.48 in 0.5 mi Calm Calm - N/A Fog Fog
3:25 AM 33.8 °F - 33.8 °F 100% 30.48 in 0.6 mi Calm Calm - N/A   Mostly Cloudy
3:55 AM 33.8 °F - 33.8 °F 100% 30.48 in 0.4 mi East 1.2 mph - N/A Fog Fog
4:00 AM 33 °F - 33 °F 100% 30.48 in 0 mi Calm Calm - - Fog Fog
4:25 AM 33.8 °F - 33.8 °F 100% 30.45 in 0.2 mi South 2.3 mph - N/A Fog Fog
4:55 AM 35.6 °F 32.8 °F 35.6 °F 100% 30.45 in 0.2 mi SSE 3.5 mph - N/A Fog Fog
5:25 AM 35.6 °F 32.8 °F 35.6 °F 100% 30.45 in 0.2 mi South 3.5 mph - N/A Fog Fog
5:55 AM 35.6 °F 32.8 °F 35.6 °F 100% 30.45 in 0.2 mi South 3.5 mph - N/A Fog Fog
6:25 AM 35.6 °F - 35.6 °F 100% 30.45 in 0.2 mi South 2.3 mph - N/A Fog Fog
6:55 AM 35.6 °F 31.7 °F 35.6 °F 100% 30.45 in 0.2 mi South 4.6 mph - N/A Fog Fog
7:00 AM 37 °F - 37 °F 100% 30.48 in 0 mi South 4.5 mph - - Fog Fog
7:25 AM 39.2 °F 35.9 °F 39.2 °F 100% 30.48 in 0.2 mi South 4.6 mph - N/A Fog Fog
7:55 AM 39.2 °F 35.9 °F 39.2 °F 100% 30.48 in 0.2 mi South 4.6 mph - N/A Fog Fog
8:25 AM 39.2 °F 35.9 °F 39.2 °F 100% 30.48 in 0.1 mi South 4.6 mph - N/A   Unknown
8:55 AM 39.2 °F 35.0 °F 39.2 °F 100% 30.48 in 0.2 mi South 5.8 mph - N/A Fog Fog
9:25 AM 41.0 °F 38.0 °F 41.0 °F 100% 30.48 in 1.1 mi South 4.6 mph - N/A   Overcast
9:55 AM 42.8 °F - 42.8 °F 100% 30.48 in 0.7 mi Variable 2.3 mph - N/A   Overcast
10:00 AM 42 °F - 42 °F 100% 30.49 in 0 mi SSW 4.5 mph - - Fog Fog
10:25 AM 42.8 °F 38.6 °F 42.8 °F 100% 30.48 in 0.6 mi South 6.9 mph - N/A Fog Fog
10:55 AM 42.8 °F 38.6 °F 42.8 °F 100% 30.48 in - South 6.9 mph - N/A Fog Fog
11:25 AM 42.8 °F 38.6 °F 42.8 °F 100% 30.48 in 0.6 mi South 6.9 mph - N/A Fog Fog
11:55 AM 44.6 °F 41.4 °F 44.6 °F 100% 30.45 in 0.6 mi SSW 5.8 mph - N/A   Overcast
12:25 PM 42.8 °F 37.5 °F 42.8 °F 100% 30.45 in 0.4 mi South 9.2 mph - N/A Fog Fog
12:55 PM 42.8 °F 38.0 °F 42.8 °F 100% 30.45 in 0.3 mi South 8.1 mph - N/A Fog Fog
1:00 PM 43 °F - 43 °F 100% 30.46 in 0 mi South 6.7 mph - - Fog Fog
1:25 PM 42.8 °F 38.6 °F 42.8 °F 100% 30.45 in 0.6 mi South 6.9 mph - N/A Fog Fog
1:55 PM 44.6 °F 40.7 °F 44.6 °F 100% 30.45 in 1.0 mi South 6.9 mph - N/A   Overcast
2:25 PM 44.6 °F 40.2 °F 44.6 °F 100% 30.42 in 1.2 mi South 8.1 mph - N/A   Overcast
2:55 PM 44.6 °F 40.7 °F 44.6 °F 100% 30.42 in 1.4 mi South 6.9 mph - N/A   Overcast
3:25 PM 44.6 °F 42.2 °F 44.6 °F 100% 30.42 in 1.3 mi South 4.6 mph - N/A   Overcast
3:55 PM 44.6 °F 41.4 °F 44.6 °F 100% 30.42 in 1.5 mi South 5.8 mph - N/A   Overcast
4:00 PM 45 °F - 44 °F 95% 30.42 in 1 mi South 6.7 mph - -   Mist
4:25 PM 44.6 °F 41.4 °F 44.6 °F 100% 30.39 in 1.4 mi South 5.8 mph - N/A   Overcast
4:55 PM 44.6 °F 42.2 °F 44.6 °F 100% 30.39 in 1.3 mi South 4.6 mph - N/A   Overcast
5:25 PM 44.6 °F 40.7 °F 44.6 °F 100% 30.39 in 1.3 mi South 6.9 mph - N/A   Overcast
5:55 PM 44.6 °F 40.7 °F 44.6 °F 100% 30.39 in 1.4 mi South 6.9 mph - N/A   Overcast
6:25 PM 44.6 °F 40.2 °F 42.8 °F 93% 30.39 in 1.3 mi South 8.1 mph - N/A   Overcast
6:55 PM 42.8 °F 38.0 °F 42.8 °F 100% 30.39 in 1.1 mi South 8.1 mph - N/A   Overcast
7:00 PM 43 °F - 43 °F 100% 30.40 in 1 mi South 6.7 mph - -   Mist
7:25 PM 42.8 °F 38.0 °F 42.8 °F 100% 30.39 in 1.1 mi South 8.1 mph - N/A   Overcast
7:55 PM 42.8 °F 38.6 °F 42.8 °F 100% 30.39 in 1.3 mi South 6.9 mph - N/A   Overcast
8:25 PM 42.8 °F 40.1 °F 42.8 °F 100% 30.39 in 1.4 mi South 4.6 mph - N/A   Overcast
8:55 PM 42.8 °F 38.6 °F 42.8 °F 100% 30.36 in 1.2 mi South 6.9 mph - N/A   Overcast
9:25 PM 42.8 °F 38.6 °F 42.8 °F 100% 30.36 in 1.3 mi South 6.9 mph - N/A   Overcast
9:55 PM 42.8 °F 39.3 °F 42.8 °F 100% 30.36 in 1.6 mi South 5.8 mph - N/A   Overcast
10:00 PM 43 °F - 43 °F 100% 30.38 in 1 mi South 6.7 mph - -   Mist
10:25 PM 42.8 °F 38.6 °F 42.8 °F 100% 30.36 in 1.2 mi South 6.9 mph - N/A   Overcast
10:55 PM 42.8 °F 39.3 °F 42.8 °F 100% 30.36 in 1.2 mi South 5.8 mph - N/A   Overcast
11:25 PM 42.8 °F 38.6 °F 42.8 °F 100% 30.36 in 1.3 mi South 6.9 mph - N/A   Overcast
11:55 PM 42.8 °F 38.6 °F 42.8 °F 100% 30.33 in 1.4 mi South 6.9 mph - N/A   Overcast